Theta_e
305 305 305 305 306 307 307 307 307 307 305 304 305 303 302 302 302 303 304 307 308 305 307 308 307 308 308 304 303 301 305 306 307 309 310 305 306 302 300 303 302 301 301 299 298
304 304 304 304 305 306 306 306 306 305 302 304 305 303 306 305 302 301 303 303 304 305 307 306 304 305 303 303 303 303 305 308 307 306 308 304 303 302 302 302 301 301 299 298 297
302 303 303 304 305 305 305 305 304 300 300 302 306 305 306 308 301 301 302 303 303 305 306 306 305 304 303 302 301 304 308 307 307 305 305 303 302 300 300 301 300 300 298 296 295
301 300 302 303 304 305 302 301 300 298 299 301 303 304 303 306 305 301 302 303 302 305 306 305 302 303 302 303 302 305 303 304 303 301 303 303 302 300 299 299 296 296 295 294 293
300 300 300 302 304 303 300 300 299 298 299 301 303 306 304 299 300 302 302 302 303 304 304 303 303 302 302 301 302 303 303 299 298 300 300 300 300 300 299 297 296 295 294 293 292
300 300 300 300 301 301 299 299 299 299 300 301 303 304 302 301 301 302 302 302 302 304 303 303 303 301 301 301 301 300 298 298 298 300 299 301 300 300 298 297 295 295 293 292 291
301 300 299 300 297 297 299 299 299 300 302 304 303 302 299 300 301 302 302 301 302 303 302 302 303 302 301 300 300 297 300 299 297 298 301 298 300 299 295 294 293 293 292 291 290
301 300 299 298 296 297 299 300 300 301 304 304 302 301 300 301 301 302 302 302 302 302 302 303 302 299 300 298 297 298 298 301 299 298 300 298 300 296 293 294 293 292 291 291 289
301 300 298 297 295 298 300 300 301 303 303 303 302 300 300 301 301 302 302 302 302 302 301 301 300 297 296 297 298 297 300 301 300 297 298 297 297 295 293 294 293 292 291 290 289
301 299 298 297 296 300 301 302 302 302 302 301 300 299 300 299 301 301 302 302 301 301 299 298 296 298 297 295 298 300 299 300 298 298 297 296 297 295 294 293 293 292 290 290 289
300 299 298 296 296 300 301 302 299 299 301 300 301 299 299 301 301 301 301 301 300 298 299 298 299 300 300 298 298 297 298 297 297 298 297 297 296 296 295 293 293 291 290 289 289
301 299 298 296 297 300 302 300 299 300 301 301 301 301 302 302 299 299 301 300 300 299 298 300 301 300 299 298 298 298 298 300 299 298 298 297 295 296 295 294 292 291 290 289 289
301 299 298 295 297 300 300 301 300 300 299 301 301 301 301 301 300 300 300 299 299 299 298 299 301 300 299 299 301 300 299 300 299 299 297 296 296 297 296 294 291 290 289 289 288
302 300 298 295 296 298 299 300 301 298 302 301 301 301 301 300 300 300 300 299 299 299 299 300 299 299 300 301 299 301 300 300 300 297 297 295 297 296 295 293 290 289 288 288 287
303 300 298 294 297 297 297 300 299 301 311 303 300 301 300 299 299 299 300 299 299 299 297 300 300 300 301 302 300 301 300 300 300 299 297 298 296 294 294 294 291 289 288 287 286
303 300 298 294 297 297 298 298 299 307 313 302 300 302 301 300 301 300 300 299 297 299 299 299 298 299 300 299 299 296 294 295 294 295 292 297 294 293 296 295 292 290 288 287 286
303 300 298 296 296 297 297 297 303 308 302 302 299 301 300 301 301 300 300 301 299 297 300 299 299 299 299 300 298 295 295 292 294 291 294 292 296 294 293 290 291 290 288 286 285
303 301 298 296 297 296 297 296 299 299 301 299 300 300 300 300 300 301 299 298 299 297 298 297 300 299 298 298 298 298 295 295 292 293 293 294 295 295 290 289 289 289 288 286 285
302 300 297 295 297 297 294 292 301 300 299 301 300 299 300 301 300 301 298 297 297 296 299 295 299 296 296 296 295 299 295 292 287 280 290 293 294 293 290 289 288 286 286 284 284
300 295 294 295 297 296 292 298 295 299 299 300 306 298 297 297 300 299 299 298 298 296 295 295 298 296 296 295 296 297 295 296 290 289 288 291 292 295 292 290 287 286 285 284 284
298 294 293 296 297 291 292 292 295 297 300 301 302 295 299 298 299 299 300 298 298 297 295 294 296 297 296 295 297 296 294 293 292 291 290 289 292 290 293 290 287 286 285 284 284
294 293 293 297 291 280 287 292 295 297 298 298 298 297 298 298 299 299 299 297 296 296 298 295 294 294 296 293 291 295 295 292 291 290 288 289 292 291 288 287 285 285 285 284 285
294 291 292 294 291 285 286 294 295 297 297 297 299 298 296 298 301 298 298 292 295 296 297 295 291 287 292 291 291 294 294 290 284 285 290 290 292 288 287 286 285 284 285 285 284
295 293 290 294 289 290 289 293 295 294 296 296 297 296 296 295 294 295 296 293 293 296 298 294 288 291 296 294 291 293 294 290 288 286 286 291 286 288 288 286 284 284 284 283 283
297 295 293 295 294 291 293 294 296 296 295 295 295 298 298 297 296 294 293 293 294 297 292 293 290 285 285 288 291 292 292 291 290 289 292 290 290 288 288 285 281 283 284 284 283
299 291 286 284 295 294 295 293 296 295 296 296 296 297 298 299 301 297 295 295 298 292 294 287 290 288 288 287 286 290 290 292 293 287 286 285 288 287 284 282 282 284 284 284 281
293 293 301 295 294 295 296 294 296 296 294 296 297 298 299 299 294 294 293 293 296 295 294 289 286 288 287 284 284 287 289 291 290 287 291 290 293 284 282 284 281 280 280 280 277
Wind_Speed
4 4 5 6 7 7 8 7 8 8 6 7 9 15 17 11 13 14 14 13 13 17 12 6 8 6 9 6 7 3 5 3 3 4 4 3 3 5 3 3 4 4 5 6 16
2 3 4 4 6 6 6 7 7 7 5 5 8 8 6 3 17 23 13 14 13 15 9 13 7 10 5 5 5 5 4 3 1 2 3 3 5 3 4 5 6 4 11 16 23
1 1 3 4 5 4 5 6 6 5 5 4 4 3 4 1 4 5 18 14 13 12 5 7 4 4 6 4 6 4 5 5 3 3 2 3 3 3 2 5 3 5 6 14 21
1 1 2 3 3 4 5 5 5 5 5 5 4 3 5 1 2 9 16 13 12 11 6 10 6 5 5 5 3 7 5 4 2 3 2 3 3 5 5 3 3 8 9 13 20
2 1 1 3 3 4 4 4 4 6 6 5 4 3 3 7 3 11 13 14 10 7 14 4 6 3 5 5 4 7 2 6 3 5 5 5 5 5 6 6 11 14 16 15 15
4 0 1 2 3 4 4 3 4 6 6 6 4 3 3 5 4 11 11 12 13 13 14 10 3 4 7 4 5 4 6 4 7 4 5 5 3 3 6 5 9 10 10 12 17
5 1 2 2 3 4 3 4 6 6 6 6 5 8 11 4 4 10 9 14 14 11 5 8 4 5 4 5 3 5 6 4 8 6 3 2 8 7 7 7 10 9 7 8 14
7 4 2 0 3 4 4 5 5 5 5 5 5 4 4 2 5 9 6 10 10 10 11 7 10 8 5 4 6 5 5 4 3 8 2 2 5 8 10 9 9 8 6 8 12
9 5 2 1 3 5 5 6 6 5 4 3 3 6 3 2 3 8 10 5 6 9 10 7 7 5 5 5 4 7 3 3 1 4 3 5 4 7 8 9 8 6 6 6 6
10 6 2 2 5 6 7 7 7 5 4 5 7 5 3 1 3 3 4 6 7 2 5 8 6 4 4 4 4 5 5 2 3 6 5 6 5 4 5 7 6 5 6 6 7
11 8 5 5 6 7 11 7 3 4 12 3 0 5 1 1 3 6 5 2 4 8 4 4 7 4 1 3 4 7 5 5 1 2 4 5 5 4 4 6 7 6 6 6 6
14 11 7 6 8 7 7 5 5 6 7 6 3 4 2 2 2 7 7 3 5 4 1 6 4 3 4 5 6 5 6 2 2 3 1 5 4 3 4 3 3 5 6 7 6
17 13 11 9 11 8 5 7 9 8 6 3 3 3 2 3 2 5 5 1 5 4 3 5 5 4 3 2 5 3 5 4 3 1 3 3 3 2 2 2 6 7 4 4 5
19 15 12 11 8 9 4 9 8 4 5 0 1 3 2 2 4 3 5 2 5 5 4 6 1 4 4 2 2 3 2 5 4 3 2 2 3 4 3 5 8 8 7 7 8
20 17 14 15 9 8 7 12 8 1 3 2 1 2 3 4 1 5 4 4 4 4 2 2 4 4 3 3 0 4 2 4 3 3 2 4 3 3 3 3 5 6 7 7 7
22 19 16 12 9 9 17 14 4 6 5 1 1 2 4 3 2 2 3 6 4 5 6 3 1 2 3 2 3 7 5 6 4 2 2 2 3 3 4 4 3 2 5 6 7
24 20 17 13 4 17 19 5 5 5 3 2 3 3 2 3 2 1 2 3 4 5 2 2 2 1 1 4 2 1 4 3 4 4 4 3 1 6 4 5 5 1 4 6 6
25 20 16 12 15 22 11 5 4 4 6 2 4 3 4 5 1 2 4 3 3 3 4 6 3 4 1 0 4 3 4 5 6 2 3 3 5 4 5 5 3 1 3 5 6
28 21 10 12 21 19 5 3 10 8 9 10 4 5 2 3 4 3 5 5 7 9 5 5 2 0 2 1 2 3 2 3 7 2 3 2 5 2 3 4 3 4 4 5 5
27 11 6 17 19 7 4 8 5 5 8 4 9 4 8 5 5 6 8 4 5 6 1 6 4 0 2 2 4 2 5 3 3 2 4 4 5 5 12 12 6 5 4 4 6
17 5 12 19 14 4 5 7 6 4 4 8 7 5 4 8 7 5 7 2 2 4 3 4 4 1 2 5 7 1 1 4 4 4 5 2 6 6 15 11 8 5 3 3 4
11 3 16 23 3 0 5 7 5 6 2 3 4 4 7 9 6 6 10 3 6 8 7 3 5 3 5 1 0 1 4 5 4 5 1 3 6 2 7 8 6 5 2 4 4
6 3 1 3 6 3 3 3 6 6 6 8 5 1 2 8 4 6 5 2 3 6 8 7 1 3 6 3 1 5 5 4 4 3 6 6 5 3 5 5 5 5 4 3 4
6 4 0 3 1 9 7 6 7 2 4 5 6 5 5 3 4 6 3 1 1 2 5 7 3 7 8 4 4 6 7 6 6 4 5 7 4 7 10 10 7 6 5 5 4
4 6 8 10 11 6 13 15 16 9 3 4 2 7 10 5 3 4 3 3 3 2 2 5 5 3 2 2 1 3 7 13 10 8 8 5 11 8 16 15 8 7 7 8 5
7 6 2 3 16 16 16 13 20 7 13 9 6 14 4 9 9 9 7 4 6 1 4 1 3 3 1 2 2 4 7 11 14 3 9 3 12 7 3 6 7 9 8 8 5
7 5 6 14 11 19 16 16 26 17 4 3 15 9 9 4 6 8 4 7 7 8 7 6 6 3 5 2 3 7 14 16 7 6 9 8 13 8 5 9 11 10 8 8 7
Wind_Direction
82 72 59 48 42 15 4 20 11 18 26 100 96 91 75 80 78 73 45 344 331 348 1 357 21 35 54 60 44 105 65 87 125 138 146 5 71 357 300 52 46 48 71 63 20
118 75 69 48 48 19 8 9 13 24 32 115 127 104 66 70 57 55 11 5 358 354 17 28 9 6 47 30 24 62 79 106 41 103 104 91 78 323 53 31 20 71 58 34 30
98 71 69 54 42 13 18 8 21 59 64 111 114 91 20 308 67 344 3 12 4 0 23 34 25 54 57 33 360 27 118 152 45 82 82 78 57 27 70 39 54 16 34 22 27
207 40 23 60 35 12 27 36 43 78 100 105 97 47 34 341 95 346 0 12 14 11 51 41 32 48 65 63 351 96 61 103 76 12 90 84 117 75 59 17 33 73 68 42 31
205 55 6 24 15 23 47 49 73 101 109 96 73 34 30 49 33 355 10 16 32 35 49 60 59 96 94 101 60 74 105 67 52 92 52 87 73 109 42 56 77 67 52 42 34
188 230 315 21 20 28 64 81 102 105 105 86 63 65 62 71 7 1 20 41 54 58 51 45 85 104 86 63 72 114 81 93 49 51 57 94 77 91 21 28 55 55 50 37 33
192 216 284 343 48 79 82 106 108 107 96 82 73 90 61 149 21 12 40 44 49 62 67 48 69 74 121 92 141 127 83 56 29 342 54 186 42 62 328 18 60 58 50 39 32
198 212 239 358 94 110 117 107 99 97 92 89 73 86 94 62 55 37 59 61 66 68 77 70 78 93 65 109 35 65 55 71 10 8 333 136 110 11 353 75 60 54 38 34 30
207 209 214 129 129 139 125 114 100 84 73 85 81 95 99 77 36 28 40 48 60 65 62 61 67 78 40 88 54 15 135 98 24 57 308 36 92 354 11 70 66 45 30 29 22
205 192 191 149 149 142 130 117 106 90 54 72 71 70 20 354 352 1 36 60 68 30 26 40 51 76 39 65 194 159 120 82 77 335 30 68 82 4 22 65 66 50 32 25 25
197 191 180 168 163 154 140 126 61 8 42 73 243 94 88 52 42 23 3 35 55 50 62 11 69 93 65 8 84 103 100 111 49 4 24 59 97 29 7 36 39 36 31 19 29
193 187 183 168 160 154 153 136 148 134 90 23 67 70 69 12 77 352 9 73 63 91 336 35 98 154 101 60 87 83 115 85 53 358 115 44 92 92 36 32 13 26 24 15 1
194 191 173 165 160 157 156 150 139 132 87 7 13 61 325 18 78 331 11 78 90 66 12 118 146 137 96 85 91 37 129 156 132 25 73 105 98 115 73 77 38 32 7 9 0
189 189 171 158 160 154 154 162 152 137 79 242 338 354 10 103 39 339 9 85 43 132 98 91 45 125 116 124 139 146 129 108 114 110 190 25 223 214 178 57 38 18 12 359 355
189 184 174 168 155 159 156 159 150 136 36 56 89 347 32 98 120 354 7 30 101 114 153 191 136 132 123 168 146 158 88 88 80 89 65 357 74 231 207 91 30 5 2 356 358
195 179 179 166 163 160 150 146 124 52 249 139 55 133 82 24 38 306 41 51 138 84 39 108 60 72 132 83 68 149 79 58 54 72 38 273 109 232 190 168 123 333 344 347 343
194 178 179 165 193 157 147 110 57 135 2 233 166 171 115 143 104 92 122 116 149 107 160 45 1 354 118 97 82 118 87 0 358 10 211 347 8 257 159 141 145 157 336 332 328
190 175 181 173 160 158 138 61 115 231 198 141 116 98 174 160 36 103 123 175 228 124 134 148 286 176 42 187 175 182 158 152 214 208 259 331 240 282 172 148 111 257 286 310 315
174 166 171 175 163 167 88 107 191 201 154 146 82 112 253 205 144 148 200 213 206 183 159 141 133 105 66 76 77 197 93 138 103 57 43 243 290 214 187 201 196 238 254 287 298
154 143 158 166 164 148 78 210 194 163 128 151 171 146 172 204 156 185 182 201 196 188 292 196 102 222 143 116 41 181 143 87 7 117 274 284 273 234 206 215 199 215 244 277 31
146 120 160 159 148 56 177 220 192 200 141 147 186 124 164 171 182 206 185 176 151 134 84 140 97 224 125 203 175 149 74 51 109 130 175 230 256 212 207 181 187 199 217 75 62
144 142 164 158 112 354 157 196 172 157 188 114 117 115 162 160 167 208 205 212 161 152 159 179 122 158 205 215 207 269 193 156 132 223 157 144 268 307 153 150 166 191 173 112 107
127 109 152 176 177 230 298 173 182 144 175 158 156 157 149 162 169 184 176 3 164 164 154 185 213 56 353 0 345 213 194 120 110 89 195 143 259 115 126 158 200 194 164 156 125
126 131 176 215 167 145 141 198 182 236 176 142 132 105 113 97 359 160 132 35 107 103 95 97 102 169 194 169 136 193 178 172 139 134 174 228 246 210 213 208 200 201 181 155 144
154 186 172 186 203 171 186 172 181 171 217 175 128 205 159 126 95 154 120 114 23 110 70 129 200 137 263 299 284 220 182 183 196 181 181 223 211 192 210 206 202 191 178 170 174
149 146 71 132 159 173 193 191 184 191 160 204 184 184 201 157 176 175 139 195 189 93 146 178 197 143 229 2 53 262 233 205 218 229 272 165 269 191 146 121 173 192 180 178 191
127 119 141 157 150 179 199 183 197 164 254 174 179 145 191 168 96 87 40 102 128 149 177 160 137 124 253 0 343 299 214 207 194 200 203 208 237 162 184 192 194 189 188 188 187